Current Weather Conditions: station 62136

sailwx.info

Wind from 230

Visibility: greater than 10.8 NM

Last reported at 2019-Sep-19 16:00 UTC.
Time now 2019-Sep-19 17:38 UTC

Location: N 54°24' E 002°36'.
View on Google Maps.

See reports from other nearby stations

  
Tides and Currents Weather Stations Pressure Air Temp Water Temp Dewpoint Dewpoint Depression Visibility Wind Speed Wind Dir Waves Ship Positions
date/time (UTC)wind fromknots sea level pressurealtimeterstation pressurevisibilityair tempwater tempwave heightnotes
2019-Sep-19 16:00 230 10.8
2019-Sep-19 15:00 200 10.8
2019-Sep-19 14:00 180 10.8
2019-Sep-19 13:00 200 5.4
2019-Sep-19 12:00 230 27.0
2019-Sep-19 11:00 250 27.0
2019-Sep-19 10:00 250 2.2
2019-Sep-19 09:00 280 10.8
2019-Sep-19 08:00 280 27.0
2019-Sep-19 07:00
2019-Sep-19 06:00
2019-Sep-19 05:00
2019-Sep-19 04:00
2019-Sep-19 03:00
2019-Sep-19 02:00
2019-Sep-19 01:00
2019-Sep-19 00:00
2019-Sep-18 23:00
2019-Sep-18 22:00
2019-Sep-18 21:00
2019-Sep-18 20:00
2019-Sep-18 19:00 330 27.0
2019-Sep-18 18:00 340 27.0
2019-Sep-18 17:00 340 27.0
2019-Sep-18 16:00 340 27.0
2019-Sep-18 14:00 350 27.0
2019-Sep-18 13:00 330 27.0
2019-Sep-18 12:00 340 27.0
2019-Sep-18 11:00 340 27.0
2019-Sep-18 10:00 350 27.0
2019-Sep-18 09:00 360 27.0
2019-Sep-18 08:00 350 27.0
2019-Sep-18 07:00 340 27.0
2019-Sep-18 06:00 340 27.0
2019-Sep-18 05:00 340 27.0
2019-Sep-18 04:00 340 27.0
2019-Sep-18 03:00 350 27.0
2019-Sep-18 02:00 350 27.0
2019-Sep-18 01:00 350 27.0
2019-Sep-18 00:00 350 10.8
2019-Sep-17 23:00 360 10.8
2019-Sep-17 22:00 350 10.8
2019-Sep-17 21:00 360 27.0
2019-Sep-17 20:00 350 10.8
2019-Sep-17 19:00 350 10.8
2019-Sep-17 18:00 340 10.8
2019-Sep-17 17:00 350 10.8